Flag for U.S.A. Weather past 2 weeks in Redmond, Washington, U.S.A.

Now
42 °F

Fog.


Feels Like: 42 °F
Forecast: 38 / 50 °F
Wind: No wind

Location: Seattle Boeing Field

Current Time: Jan 31, 2015 at 1:12:49 AM

Latest Report: Jan 31, 2015 at 12:53 AM


Visibility: 0 mi

Pressure: 30.26 "Hg

Humidity: 89%

Dew point: 39 °F

Location of RedmondLocation

Historic Weather in Redmond — Graph

°F

Redmond temperature yesterday

Maximum temperature yesterday: 48 °F (at 1:53 PM)
Minimum temperature yesterday: 39 °F (at 3:53 AM)
Average temperature yesterday: 42 °F

Past Weeks' High & Low Weather Summary

 TemperatureHumidityPressure
High65 °F (Jan 25, 2:53 PM)96% (Jan 30, 10:53 AM)30.46 "Hg (Jan 30, 10:53 AM)
Low33 °F (Jan 21, 6:53 AM)52% (Jan 26, 2:53 PM)29.60 "Hg (Jan 17, 11:53 PM)
Average50 °F78%30.21 "Hg
* Reported Jan 15 11:53 PM — Jan 30 11:53 PM, Redmond, Weather by CustomWeather, © 2014

Note: Actual official high and low records may vary slightly from our data, if they occured in-between our weather recording intervals... More about our weather records

Advertising

Redmond weather history for previous 24 hours

 ConditionsComfort  
Time TempWeatherWind HumidityBarometerVisibility
11:53 PM
Jan 30
42 °FFog.No wind89%30.27 "Hg0 mi
10:53 PM40 °FFog.No wind89%30.26 "Hg0 mi
10:00 PM39 °FFog.8 mph87%30.25 "Hg1 mi
8:53 PM41 °FFog.No wind89%30.26 "Hg0 mi
7:53 PM42 °FFog.No wind89%30.27 "Hg0 mi
7:01 PM43 °FFog.3 mph87%30.27 "Hg3 mi
5:53 PM47 °FClear.No wind77%30.27 "Hg7 mi
4:53 PM47 °FSunny.No wind77%30.27 "Hg8 mi
3:53 PM48 °FPassing clouds.3 mph74%30.27 "Hg10 mi
2:53 PM48 °FSunny.5 mph74%30.27 "Hg6 mi
1:53 PM48 °FScattered clouds.3 mph74%30.26 "Hg5 mi
12:53 PM47 °FScattered clouds.No wind74%30.28 "Hg5 mi
12:03 PM43 °FPartly sunny.No wind81%30.30 "Hg5 mi
11:53 AM41 °FFog.No wind89%30.30 "Hg2 mi
10:53 AM39 °FFog.No wind96%30.32 "Hg1 mi
9:53 AM39 °FFog.3 mph89%30.34 "Hg0 mi
8:53 AM39 °FFog.No wind93%30.34 "Hg0 mi
7:53 AM39 °FFog.5 mph93%30.33 "Hg0 mi
6:53 AM40 °FFog.No wind89%30.32 "Hg0 mi
5:56 AM41 °FFog.No wind87%30.32 "Hg1 mi
4:53 AM40 °FFog.No wind89%30.32 "Hg5 mi
3:53 AM39 °FClear.No wind86%30.32 "Hg9 mi
2:53 AM41 °FClear.No wind86%30.33 "Hg10 mi
1:53 AM41 °FClear.No wind80%30.32 "Hg10 mi
Weather by CustomWeather, © 2014

See weather overviewHow to use our weather pages